| time (UTC) | temp F | wind direction | speed knots | gust knots | rain 1hr in | rain 24hr in | rain mn in | humidity % | barometer mb |
| 20260504081604 | 41 | 299 | 1.7 | 4.3 | 0.00 | 0.00 | 0.00 | ||
| 20260504081104 | 41 | 303 | 1.7 | 5.2 | 0.00 | 0.00 | 0.00 | ||
| 20260504080104 | 40 | 325 | 1.7 | 6.1 | 0.00 | 0.00 | 0.00 | ||
| 20260504060104 | 39 | 282 | 0.0 | 0.9 | 0.00 | 0.00 | 0.00 | ||
| 20260504050603 | 39 | 328 | 0.0 | 0.9 | 0.00 | 0.00 | 0.00 | ||
| 20260504045103 | 39 | 329 | 0.0 | 0.0 | 0.00 | 0.00 | 0.00 | ||
| 20260504044104 | 40 | 328 | 0.0 | 0.0 | 0.00 | 0.00 | 0.00 | ||
| 20260504043604 | 39 | 330 | 0.0 | 0.0 | 0.00 | 0.00 | 0.00 | ||
| 20260504043104 | 40 | 326 | 0.0 | 0.0 | 0.00 | 0.00 | 0.00 | ||
| 20260504042604 | 39 | 328 | 0.0 | 0.0 | 0.00 | 0.00 | 0.00 | ||
| 20260504042103 | 39 | 327 | 0.0 | 0.0 | 0.00 | 0.00 | 0.00 | ||
| 20260504040603 | 40 | 326 | 0.0 | 0.0 | 0.00 | 0.00 | 0.00 | ||
| 20260504035105 | 40 | 324 | 0.0 | 0.0 | 0.00 | 0.00 | 0.00 | ||
| 20260504033604 | 41 | 325 | 0.0 | 0.0 | 0.00 | 0.00 | 0.00 | ||
| 20260504033104 | 41 | 325 | 0.0 | 0.0 | 0.00 | 0.00 | 0.00 | ||
| 20260504032603 | 41 | 327 | 0.0 | 0.0 | 0.00 | 0.00 | 0.00 | ||
| 20260504031603 | 41 | 328 | 0.0 | 0.0 | 0.00 | 0.00 | 0.00 | ||
| 20260504030104 | 42 | 326 | 0.0 | 0.0 | 0.00 | 0.00 | 0.00 | ||
| 20260504024604 | 42 | 326 | 0.0 | 0.0 | 0.00 | 0.00 | 0.00 | ||
| 20260504023604 | 43 | 327 | 0.0 | 0.0 | 0.00 | 0.00 | 0.00 | ||
| 20260504023104 | 43 | 327 | 0.0 | 0.0 | 0.00 | 0.00 | 0.00 | ||
| 20260504022603 | 43 | 327 | 0.0 | 0.0 | 0.00 | 0.00 | 0.00 | ||
| 20260504021603 | 44 | 330 | 0.0 | 0.0 | 0.00 | 0.00 | 0.00 | ||
| 20260504015604 | 45 | 329 | 0.0 | 0.0 | 0.00 | 0.00 | 0.00 | ||
| 20260504015103 | 45 | 330 | 0.0 | 0.0 | 0.00 | 0.00 | 0.00 | ||
| 20260504014103 | 46 | 330 | 0.0 | 0.0 | 0.00 | 0.00 | 0.00 | ||
| 20260504013605 | 46 | 330 | 0.0 | 0.0 | 0.00 | 0.00 | 0.00 | ||
| 20260504012105 | 47 | 330 | 0.0 | 0.0 | 0.00 | 0.00 | 0.00 | ||
| 20260504011104 | 47 | 330 | 0.0 | 1.7 | 0.00 | 0.00 | 0.00 | ||
| 20260504010604 | 48 | 329 | 0.0 | 2.6 | 0.00 | 0.00 | 0.00 | ||
| 20260504010104 | 48 | 332 | 0.9 | 2.6 | 0.00 | 0.00 | 0.00 | ||
| 20260504005604 | 48 | 311 | 0.9 | 2.6 | 0.00 | 0.00 | 0.00 | ||
| 20260504005104 | 49 | 338 | 0.9 | 2.6 | 0.00 | 0.00 | 0.00 | ||
| 20260504003604 | 51 | 333 | 0.9 | 5.2 | 0.00 | 0.00 | 0.00 | ||
| 20260504000104 | 54 | 338 | 2.6 | 8.7 | 0.00 | 0.00 | 0.00 | ||
| 20260503234604 | 56 | 339 | 3.5 | 11.3 | 0.00 | 0.00 | 0.00 | ||
| 20260503233603 | 57 | 351 | 3.5 | 8.7 | 0.00 | 0.00 | 0.00 | ||
| 20260503232105 | 57 | 358 | 3.5 | 10.4 | 0.00 | 0.00 | 0.00 | ||
| 20260503231104 | 57 | 353 | 4.3 | 8.7 | 0.00 | 0.00 | 0.00 | ||
| 20260503230104 | 57 | 353 | 2.6 | 10.4 | 0.00 | 0.00 | 0.00 | ||
| 20260503225103 | 59 | 6 | 1.7 | 10.4 | 0.00 | 0.00 | 0.00 | ||
| 20260503224604 | 59 | 343 | 4.3 | 10.4 | 0.00 | 0.00 | 0.00 | ||
| 20260503223604 | 59 | 356 | 5.2 | 11.3 | 0.00 | 0.00 | 0.00 | ||
| 20260503223104 | 60 | 13 | 5.2 | 13.9 | 0.00 | 0.00 | 0.00 | ||
| 20260503221604 | 64 | 6 | 7.0 | 14.8 | 0.00 | 0.00 | 0.00 | ||
| 20260503215104 | 58 | 352 | 5.2 | 11.3 | 0.00 | 0.00 | 0.00 | ||
| 20260503214604 | 60 | 1 | 5.2 | 14.8 | 0.00 | 0.00 | 0.00 | ||
| 20260503214104 | 61 | 333 | 4.3 | 15.6 | 0.00 | 0.00 | 0.00 | ||
| 20260503213603 | 62 | 354 | 5.2 | 17.4 | 0.00 | 0.00 | 0.00 | ||
| 20260503212604 | 62 | 353 | 7.0 | 17.4 | 0.00 | 0.00 | 0.00 | ||
| 20260503212103 | 64 | 358 | 4.3 | 13.9 | 0.00 | 0.00 | 0.00 | ||
| 20260503211104 | 64 | 8 | 6.1 | 13.9 | 0.00 | 0.00 | 0.00 | ||
| 20260503205103 | 63 | 352 | 8.7 | 20.9 | 0.00 | 0.00 | 0.00 | ||
| 20260503204604 | 63 | 7 | 6.1 | 17.4 | 0.00 | 0.00 | 0.00 | ||
| 20260503203604 | 62 | 310 | 6.1 | 14.8 | 0.00 | 0.00 | 0.00 | ||
| 20260503203103 | 62 | 24 | 6.1 | 18.2 | 0.00 | 0.00 | 0.00 | ||
| 20260503202605 | 62 | 340 | 7.8 | 18.2 | 0.00 | 0.00 | 0.00 | ||
| 20260503202104 | 64 | 353 | 7.8 | 15.6 | 0.00 | 0.00 | 0.00 | ||
| 20260503201104 | 63 | 6 | 5.2 | 13.9 | 0.00 | 0.00 | 0.00 | ||
| 20260503195604 | 64 | 346 | 5.2 | 17.4 | 0.00 | 0.00 | 0.00 | ||
| 20260503195104 | 62 | 12 | 8.7 | 17.4 | 0.00 | 0.00 | 0.00 | ||
| 20260503194604 | 62 | 346 | 5.2 | 13.0 | 0.00 | 0.00 | 0.00 | ||
| 20260503194104 | 58 | 358 | 7.0 | 13.0 | 0.00 | 0.00 | 0.00 | ||
| 20260503193604 | 59 | 15 | 4.3 | 14.8 | 0.00 | 0.00 | 0.00 | ||
| 20260503192604 | 60 | 16 | 5.2 | 17.4 | 0.00 | 0.00 | 0.00 | ||
| 20260503191604 | 59 | 7 | 5.2 | 15.6 | 0.00 | 0.00 | 0.00 | ||
| 20260503184603 | 61 | 354 | 7.8 | 19.1 | 0.00 | 0.00 | 0.00 | ||
| 20260503183604 | 59 | 350 | 10.4 | 19.1 | 0.00 | 0.00 | 0.00 | ||
| 20260503182605 | 61 | 344 | 2.6 | 13.9 | 0.00 | 0.00 | 0.00 | ||
| 20260503182104 | 62 | 348 | 4.3 | 10.4 | 0.00 | 0.00 | 0.00 | ||
| 20260503180604 | 57 | 338 | 5.2 | 13.0 | 0.00 | 0.00 | 0.00 | ||
| 20260503180105 | 57 | 352 | 3.5 | 13.9 | 0.00 | 0.00 | 0.00 | ||
| 20260503175604 | 57 | 21 | 7.0 | 17.4 | 0.00 | 0.00 | 0.00 | ||
| 20260503175104 | 59 | 30 | 6.1 | 17.4 | 0.00 | 0.00 | 0.00 | ||
| 20260503174103 | 57 | 325 | 4.3 | 15.6 | 0.00 | 0.00 | 0.00 | ||
| 20260503173603 | 58 | 26 | 6.1 | 14.8 | 0.00 | 0.00 | 0.00 | ||
| 20260503172603 | 55 | 10 | 4.3 | 13.9 | 0.00 | 0.00 | 0.00 | ||
| 20260503172104 | 57 | 336 | 2.6 | 17.4 | 0.00 | 0.00 | 0.00 | ||
| 20260503171604 | 55 | 338 | 4.3 | 17.4 | 0.00 | 0.00 | 0.00 | ||
| 20260503170604 | 57 | 337 | 4.3 | 13.9 | 0.00 | 0.00 | 0.00 | ||
| 20260503160104 | 56 | 10 | 3.5 | 17.4 | 0.00 | 0.00 | 0.00 | ||
| 20260503130104 | 48 | 5 | 6.1 | 15.6 | 0.00 | 0.00 | 0.00 |